#timestamp,LO_Frequency,Hit,StdDev 
1657090815.2,286046998.7,N
1657090835.1,286046998.1,N
1657090836.0,286046998.1,N
1657090855.8,286047000.2,N
1657090875.7,286047002.4,N
1657090895.5,286047000.3,N
1657090915.3,286047000.4,N
1657090935.2,286046998.7,N
1657090955.0,286046996.5,N
1657090955.9,286046996.5,N
1657090975.8,286046999.4,N
1657090995.6,286047001.0,N
1657091015.4,286047001.1,N
1657091035.3,286047000.2,N
1657091055.1,286047001.3,N
1657091075.8,286047004.2,N
1657091095.7,286047003.2,N
1657091115.5,286047003.9,N
1657091135.4,286047004.5,N
1657091155.2,286047004.3,N
1657091175.0,286047004.1,N
1657091175.9,286047004.1,N
1657091195.8,286047005.7,N
1657091215.6,286047005.3,N
1657091235.4,286047004.0,N
1657091255.3,286047002.7,N
1657091275.1,286047000.0,N
1657091295.9,286047001.5,N
1657091315.7,286047002.8,N
1657091335.5,286047000.4,N
1657091355.4,286047000.4,N
1657091375.2,286046999.9,N
1657091395.0,286047000.7,N
1657091395.9,286047000.7,N
1657091415.8,286046999.7,N
1657091465.6,286046999.8,E
1657091475.6,286047000.3,N
1657091495.4,286046998.6,P
1657091515.2,286047001.0,N
1657091535.1,286047001.2,N
1657091536.0,286047001.2,N
1657091555.8,286047002.7,N
1657091575.7,286046999.9,N
1657091595.5,286047002.6,N
1657091615.3,286047002.6,N
1657091635.2,286047001.7,N
1657091655.0,286047003.2,N
1657091685.9,286047003.5,E
1657091695.8,286047000.2,N
1657091715.7,286046998.3,P
1657091735.5,286047000.5,N
1657091755.4,286047000.5,N
1657091775.2,286047000.3,N
1657091795.0,286046997.7,N
1657091795.9,286046997.7,N
1657091815.8,286046996.1,Y
1657091835.6,286046995.1,P
1657091855.4,286046996.2,N
1657091875.3,286046995.4,N
1657091895.1,286046995.0,Y
1657091915.9,286046999.4,P
1657091935.7,286046998.4,N
1657091955.5,286047000.7,N
1657091975.4,286046998.5,N
1657091995.2,286047000.0,N
1657092015.1,286047002.8,N
1657092016.0,286047002.8,N
1657092035.8,286047003.3,N
1657092055.6,286047001.4,N
1657092075.5,286047002.3,N
1657092095.3,286047002.7,N
1657092115.1,286046999.7,N
1657092135.9,286047004.2,N
1657092155.7,286047002.0,N
1657092175.6,286047002.3,N
1657092195.4,286047003.2,N
1657092215.2,286047004.2,N
1657092235.1,286047004.4,N
1657092236.0,286047004.4,N
1657092255.8,286047004.1,N
1657092275.6,286047004.1,N
1657092295.5,286047005.6,N
1657092315.3,286047005.5,N
1657092335.2,286047003.3,N
1657092355.9,286047005.6,N
1657092375.7,286047003.7,N
1657092395.6,286047004.3,N
1657092415.4,286047004.6,N
1657092435.2,286047005.3,N
1657092455.1,286047005.9,N
1657092456.0,286047005.9,N
1657092475.8,286047004.7,N
1657092495.7,286047003.7,N
1657092515.5,286047002.7,N
1657092535.3,286047001.0,N
1657092555.2,286047002.3,N
1657092575.0,286047005.9,Y
1657092575.9,286047005.9,P
1657092595.8,286046996.5,P
1657092615.6,286046999.2,N
1657092635.4,286046996.5,N
1657092655.3,286046996.6,N
1657092675.1,286046996.8,N
1657092695.8,286046998.3,N
1657092715.7,286046999.3,N
1657092735.5,286046996.7,N
1657092755.4,286046999.0,N
1657092775.2,286047001.1,N
1657092795.0,286046998.2,N
1657092795.9,286046998.2,N
1657092815.8,286046999.0,N
1657092835.6,286046999.6,N
1657092855.4,286046996.8,N
1657092875.3,286046998.8,N
1657092895.1,286046999.5,N
1657092915.9,286047001.0,N
1657092935.7,286047000.3,N
1657092955.5,286046998.2,N
1657092975.4,286046997.5,N
1657092995.2,286047000.4,N
1657093015.0,286046998.2,N
1657093016.0,286046998.2,N
1657093035.8,286046998.1,N
1657093055.6,286047000.4,N
1657093075.5,286047000.7,N
1657093095.3,286046999.0,N
1657093115.1,286046998.2,N
1657093135.9,286046999.3,N
1657093155.7,286046997.5,N
1657093175.6,286046999.0,N
1657093195.4,286046995.6,Y
1657093215.2,286046996.7,P
1657093235.1,286046996.8,P
1657093236.0,286046996.8,P
1657093255.8,286046996.3,Y
1657093275.7,286046996.9,P
1657093295.5,286046998.1,P
1657093315.3,286046999.1,N
1657093335.2,286046997.4,Y
1657093355.0,286046998.9,P
1657093355.9,286046998.9,N
1657093375.8,286046998.7,N
1657093395.6,286046999.8,N
1657093415.4,286047000.4,N
1657093435.3,286047001.0,N
1657093455.1,286046998.9,N
1657093475.8,286046998.5,N
1657093495.7,286046998.1,N
1657093515.5,286046999.0,N
1657093535.4,286046998.1,N
1657093555.2,286046999.0,N
1657093575.0,286046999.1,N
1657093575.9,286046999.1,N
1657093595.8,286047000.5,N
1657093615.6,286047002.8,Y
1657093635.5,286047005.2,P
1657093655.3,286047006.0,N
1657093675.1,286047005.6,N
1657093695.9,286047002.9,N
1657093715.7,286047007.5,N
1657093735.6,286047007.2,N
1657093755.4,286047007.4,N
1657093775.2,286047005.9,N
1657093795.1,286047004.3,N
1657093796.0,286047004.3,N
1657093815.8,286047002.0,N
1657093835.6,286047002.6,N
1657093855.5,286047000.6,N
1657093875.3,286046999.4,N
1657093895.2,286047000.4,N
1657093915.9,286047002.5,N
1657093935.7,286047004.2,N
1657093955.6,286047004.2,N
1657093975.4,286047002.9,N
1657093995.2,286047004.9,N
1657094015.1,286047007.5,Y
1657094016.0,286047007.5,P
1657094035.8,286047002.0,N
1657094055.7,286047002.4,N
1657094075.5,286047002.2,N
1657094095.3,286047001.1,N
1657094115.2,286046999.4,N
1657094135.0,286046999.4,N
1657094135.9,286046999.4,N
1657094155.8,286046997.1,N
1657094175.6,286046998.3,N
1657094195.4,286047001.0,N
1657094215.3,286046998.6,N
1657094235.1,286046998.0,N
1657094255.8,286046994.9,N
1657094275.7,286046993.8,N
1657094295.5,286046995.5,N
1657094315.4,286046997.6,N
1657094335.2,286046996.8,N
1657094355.0,286046995.3,N
1657094355.9,286046995.3,N
1657094375.8,286046995.4,N
1657094395.6,286046999.0,N
